Temperature
-2 -2 -2 -2 -2 -3 -2 -2 -1 -1 -1 -1 -2 -3 -2 -2 -2 -2 -2 -2 -2 -2 -2 -2 -2 -2 -2 -2 -2 -2 -2 -2 -2 -2 -2 -2 -2 -2 -2 -2 -2 -2 -2 -2
-3 -3 -3 -2 -2 -2 -2 -2 -3 -2 -2 -2 -2 -2 -3 -3 -3 -3 -3 -3 -3 -3 -2 -2 -2 -2 -3 -3 -3 -3 -3 -3 -3 -3 -3 -3 -3 -3 -3 -3 -3 -3 -3 -3
-3 -4 -3 -2 -3 -3 -4 -4 -3 -2 -2 -3 -4 -4 -3 -3 -3 -3 -3 -3 -3 -3 -3 -3 -3 -3 -3 -3 -3 -3 -3 -3 -3 -3 -3 -3 -3 -3 -3 -3 -3 -3 -3 -3
-4 -3 -2 -1 -3 -4 -4 -4 -5 -4 -4 -4 -4 -3 -3 -3 -3 -3 -3 -3 -3 -4 -3 -3 -4 -4 -4 -4 -4 -4 -4 -4 -4 -4 -4 -4 -4 -4 -4 -4 -4 -4 -4 -4
-5 -4 -3 -3 -4 -5 -4 -4 -5 -5 -5 -5 -5 -5 -4 -3 -3 -3 -3 -4 -4 -4 -4 -4 -4 -4 -4 -4 -4 -5 -5 -5 -5 -5 -5 -5 -5 -5 -5 -5 -5 -5 -5 -5
-5 -4 -3 -2 -4 -5 -4 -4 -4 -5 -5 -6 -6 -6 -5 -3 -4 -4 -4 -4 -4 -4 -5 -5 -5 -5 -5 -5 -5 -5 -5 -5 -5 -6 -6 -6 -6 -6 -6 -6 -6 -6 -6 -6
-5 -5 -4 -4 -6 -5 -3 -2 -4 -4 -5 -6 -6 -5 -4 -4 -5 -5 -5 -5 -5 -5 -5 -5 -5 -5 -5 -5 -6 -6 -6 -6 -6 -6 -7 -7 -7 -7 -7 -7 -7 -7 -7 -7
-6 -5 -3 -5 -6 -5 -4 -4 -4 -4 -4 -5 -5 -5 -5 -5 -5 -5 -5 -5 -5 -5 -6 -6 -6 -6 -6 -6 -6 -7 -7 -7 -7 -7 -7 -7 -7 -8 -8 -8 -8 -8 -8 -7
-5 -3 -4 -5 -4 -4 -3 -4 -4 -4 -4 -4 -5 -6 -6 -6 -6 -6 -6 -6 -6 -6 -6 -6 -6 -7 -7 -7 -7 -7 -8 -8 -8 -8 -8 -8 -8 -8 -8 -8 -9 -8 -8 -8
-7 -6 -6 -5 -4 -4 -4 -4 -4 -4 -5 -5 -5 -6 -6 -6 -6 -6 -6 -6 -7 -7 -7 -7 -7 -7 -8 -8 -8 -8 -8 -9 -9 -9 -9 -9 -9 -9 -9 -9 -9 -9 -9 -9
-7 -7 -7 -6 -5 -4 -4 -4 -5 -5 -5 -6 -6 -6 -7 -7 -7 -7 -7 -7 -7 -8 -8 -8 -8 -8 -8 -9 -9 -9 -9 -9 -9 -10 -10 -10 -10 -10 -10 -10 -10 -10 -10 -9
-6 -6 -7 -5 -4 -5 -5 -5 -5 -6 -6 -6 -7 -7 -7 -7 -7 -8 -8 -8 -8 -8 -8 -8 -9 -9 -9 -9 -10 -10 -10 -10 -10 -10 -10 -10 -10 -10 -11 -10 -10 -10 -10 -10
-5 -5 -5 -5 -5 -5 -6 -6 -6 -7 -7 -7 -7 -8 -8 -8 -8 -8 -8 -9 -9 -9 -9 -9 -9 -9 -10 -10 -10 -11 -11 -11 -11 -11 -11 -11 -11 -11 -11 -11 -11 -11 -11 -11
-6 -6 -6 -6 -6 -6 -7 -7 -7 -8 -8 -8 -8 -8 -8 -9 -9 -9 -9 -9 -9 -10 -10 -10 -10 -10 -11 -11 -11 -11 -11 -11 -11 -11 -12 -12 -12 -12 -12 -12 -12 -11 -11 -11
-7 -7 -7 -7 -7 -7 -8 -8 -8 -8 -9 -9 -9 -9 -9 -10 -10 -10 -10 -10 -10 -10 -10 -11 -11 -11 -11 -12 -12 -12 -12 -12 -12 -12 -12 -12 -13 -13 -13 -13 -12 -12 -12 -12
-8 -8 -8 -8 -8 -8 -9 -9 -9 -9 -9 -10 -10 -10 -10 -10 -10 -11 -11 -11 -11 -11 -11 -11 -12 -12 -12 -12 -12 -12 -12 -13 -13 -13 -13 -13 -13 -13 -13 -13 -13 -13 -13 -12
-9 -9 -9 -9 -9 -9 -9 -10 -10 -10 -10 -10 -11 -11 -11 -11 -11 -11 -11 -12 -12 -12 -12 -12 -12 -13 -13 -13 -13 -13 -13 -13 -13 -13 -13 -14 -14 -14 -14 -14 -14 -13 -13 -13
-10 -9 -10 -10 -10 -10 -10 -11 -11 -11 -11 -11 -11 -12 -12 -12 -12 -12 -12 -13 -13 -13 -13 -13 -13 -13 -13 -13 -13 -14 -14 -14 -14 -14 -14 -14 -14 -14 -14 -14 -14 -14 -14 -14
-10 -10 -10 -10 -11 -11 -11 -11 -11 -12 -12 -12 -12 -12 -12 -13 -13 -13 -13 -13 -13 -13 -13 -14 -14 -14 -14 -14 -14 -14 -14 -14 -14 -14 -14 -14 -14 -14 -14 -14 -14 -14 -14 -14
-11 -11 -11 -11 -11 -12 -12 -12 -12 -12 -12 -13 -13 -13 -13 -13 -14 -14 -14 -14 -14 -14 -14 -14 -14 -14 -14 -14 -14 -14 -14 -14 -15 -15 -15 -15 -15 -15 -15 -15 -14 -14 -14 -15
-11 -11 -12 -12 -12 -12 -12 -12 -13 -13 -13 -13 -13 -14 -14 -14 -14 -14 -14 -14 -14 -15 -15 -15 -15 -15 -15 -15 -15 -15 -15 -15 -15 -15 -15 -15 -15 -15 -15 -15 -15 -15 -15 -15
-12 -12 -12 -13 -13 -13 -13 -13 -13 -14 -14 -14 -14 -14 -14 -15 -15 -15 -15 -15 -15 -15 -15 -15 -15 -15 -15 -15 -15 -15 -15 -15 -15 -15 -15 -15 -15 -15 -15 -15 -15 -15 -15 -15
-13 -13 -13 -13 -13 -13 -14 -14 -14 -14 -14 -14 -15 -15 -15 -15 -15 -15 -15 -15 -15 -15 -15 -15 -15 -15 -16 -16 -16 -16 -16 -16 -16 -16 -16 -16 -16 -16 -16 -16 -16 -16 -16 -15
-13 -13 -14 -14 -14 -14 -14 -14 -14 -14 -15 -15 -15 -15 -15 -15 -15 -16 -16 -16 -16 -16 -16 -16 -16 -16 -16 -16 -16 -16 -16 -16 -16 -16 -16 -16 -16 -16 -16 -16 -16 -16 -16 -16
-14 -14 -14 -14 -14 -14 -15 -15 -15 -15 -15 -15 -15 -15 -16 -16 -16 -16 -16 -16 -16 -16 -16 -16 -16 -16 -16 -16 -16 -16 -16 -16 -16 -16 -16 -16 -16 -16 -16 -16 -16 -16 -16 -16
-14 -14 -14 -15 -15 -15 -15 -15 -15 -15 -15 -16 -16 -16 -16 -16 -16 -16 -16 -16 -16 -16 -16 -16 -16 -17 -17 -17 -17 -17 -17 -17 -17 -17 -17 -17 -16 -16 -16 -16 -16 -16 -16 -16
-15 -15 -15 -15 -15 -15 -15 -15 -15 -16 -16 -16 -16 -16 -16 -16 -16 -16 -16 -16 -17 -17 -17 -17 -17 -17 -17 -17 -17 -17 -17 -17 -17 -17 -17 -17 -17 -17 -17 -17 -17 -16 -16 -16
Wind_Speed
5 4 3 6 7 8 10 9 9 9 9 10 7 6 5 4 3 3 3 3 3 3 3 3 3 3 3 3 2 2 2 2 3 4 3 3 3 3 3 3 3 3 3 3
3 3 4 7 9 10 11 10 10 10 12 9 5 3 4 4 4 4 4 4 4 4 3 3 3 3 3 3 3 2 3 3 3 3 3 3 3 3 3 3 3 3 3 3
4 3 3 8 9 9 6 7 8 12 11 5 4 5 5 5 5 5 5 4 4 4 4 3 3 3 3 3 2 2 3 3 3 3 3 3 3 3 3 4 3 3 3 4
1 1 6 7 1 6 7 7 8 7 6 5 6 5 5 4 5 4 4 4 4 4 3 2 2 2 2 2 2 2 3 3 3 3 3 3 3 3 3 3 3 4 4 4
2 3 8 7 3 5 6 7 8 10 8 5 2 3 4 3 3 4 4 4 4 3 3 2 2 2 1 2 2 2 3 3 3 3 3 3 3 4 3 3 3 4 4 3
3 4 7 7 2 3 4 6 5 7 7 3 2 1 5 2 2 3 3 2 2 2 2 2 2 1 1 2 2 3 4 4 3 3 3 4 4 3 3 3 3 3 3 3
5 6 9 5 2 5 4 7 2 5 5 5 6 6 3 2 3 3 3 3 2 2 2 2 2 1 1 2 3 4 4 3 3 3 3 3 3 2 2 2 2 2 3 3
5 6 9 4 6 8 7 1 2 3 3 4 5 4 3 3 3 2 2 3 2 2 3 2 1 1 2 3 4 3 3 3 3 3 3 2 2 2 2 2 2 2 2 3
9 8 3 6 6 4 2 3 3 3 3 4 4 4 4 3 3 3 3 3 2 2 3 3 2 1 3 4 3 3 2 3 3 3 3 2 2 2 2 1 2 2 2 3
5 7 4 5 4 3 3 4 4 3 3 4 4 4 4 4 3 3 3 3 2 2 3 3 3 3 3 3 3 2 2 3 3 2 3 2 2 2 2 2 2 3 3 3
6 6 4 5 6 6 4 3 3 3 3 4 4 5 5 4 4 4 4 3 2 3 4 4 3 3 3 3 1 1 2 2 2 2 2 2 2 2 3 3 4 4 3 3
7 5 5 6 4 4 4 5 5 4 4 4 4 5 5 4 4 4 4 3 3 4 4 4 3 3 3 2 1 1 2 2 2 2 2 2 2 3 5 4 5 6 5 5
5 3 4 4 3 2 4 5 4 4 5 5 4 4 4 4 4 3 4 4 4 4 4 3 3 4 3 2 2 2 2 2 2 2 2 2 2 2 3 4 5 5 5 5
3 2 3 4 4 3 3 3 2 3 3 3 3 3 3 3 4 4 4 5 4 4 3 3 3 4 4 2 2 2 2 3 2 2 2 2 2 2 3 3 3 3 5 6
4 4 4 3 2 2 1 1 1 2 2 2 2 3 3 4 4 4 4 3 3 2 3 3 3 4 3 2 2 2 2 2 2 2 2 2 2 2 3 3 3 3 3 4
3 2 2 2 3 3 2 2 3 4 3 3 3 3 4 3 3 3 2 2 2 3 3 3 4 4 3 2 2 2 2 3 3 2 1 2 2 2 2 3 3 3 3 3
1 2 3 4 4 4 4 4 4 4 4 4 4 3 2 1 1 2 2 2 2 3 3 3 4 3 2 2 2 2 2 2 4 3 2 2 2 2 3 2 3 3 3 4
4 4 4 5 4 4 4 3 3 3 3 3 2 1 2 2 2 2 2 2 2 2 3 3 3 2 2 2 2 2 1 1 2 2 2 2 2 2 2 2 3 4 4 4
2 2 2 2 3 3 3 3 3 2 2 1 2 2 2 2 2 2 1 1 1 2 3 3 4 2 2 3 2 1 1 1 2 2 2 3 3 2 2 3 3 3 4 4
1 1 1 1 1 1 1 2 1 1 1 1 1 1 0 1 1 1 1 2 2 3 3 4 3 2 2 2 2 1 1 1 2 2 2 2 2 2 2 3 3 3 3 3
1 1 1 1 2 2 1 1 0 0 0 1 2 2 1 1 1 1 1 2 2 2 2 3 2 2 2 1 1 0 1 1 2 1 2 2 2 3 3 3 3 3 3 3
1 1 1 1 1 2 2 1 1 1 1 1 1 1 1 1 1 1 2 2 2 4 2 1 1 3 2 1 0 0 1 1 1 1 1 2 2 3 3 3 3 3 3 3
0 0 0 0 0 1 2 1 1 1 1 1 1 1 1 1 1 1 2 2 2 3 2 1 3 4 3 1 1 0 1 1 2 2 2 2 2 3 3 3 3 4 4 4
0 0 0 0 1 1 1 1 1 1 0 0 1 1 1 1 1 1 1 3 4 4 2 3 5 5 4 2 1 0 1 2 2 2 2 2 2 3 3 3 4 4 4 5
1 1 0 1 0 0 0 0 1 1 1 1 1 1 1 0 1 1 1 2 4 4 2 4 5 5 3 1 1 1 2 2 2 2 2 2 3 3 3 3 4 4 4 5
1 1 1 1 1 1 1 0 0 0 1 1 1 1 1 1 1 1 1 1 2 4 3 2 3 4 2 2 2 2 2 3 4 3 3 3 3 4 4 4 5 5 5 5
0 0 0 0 0 0 1 1 1 1 1 1 1 1 1 1 1 1 1 1 2 2 2 2 2 2 2 2 2 2 2 3 3 3 3 3 3 4 4 5 5 5 6 6
Wind_Direction
251 266 231 229 232 208 210 215 220 243 244 257 260 249 255 261 262 268 283 286 281 280 271 260 266 267 262 267 272 258 238 240 251 261 257 250 250 253 246 244 245 244 246 251
273 276 265 264 252 225 228 232 238 257 265 263 277 263 269 262 253 261 276 282 287 286 282 264 263 269 271 271 276 258 235 248 262 261 255 250 250 255 251 244 245 242 241 249
251 298 340 272 238 208 210 215 204 231 246 265 275 259 252 250 246 253 266 284 291 286 277 272 270 273 264 266 275 265 253 255 257 254 255 255 257 254 252 245 236 238 245 245
216 49 239 244 194 187 204 232 217 229 249 245 249 263 264 247 236 253 272 282 290 292 290 291 290 289 292 289 272 261 264 265 259 253 256 256 250 249 254 253 240 239 248 237
169 231 272 284 228 176 193 255 225 228 249 265 305 321 287 257 237 249 265 275 279 279 282 293 291 294 316 311 293 280 274 271 268 255 254 253 251 253 251 250 255 251 245 235
171 206 242 251 201 153 123 275 237 208 229 233 121 254 267 280 307 298 297 295 296 302 315 307 302 305 298 294 299 286 285 283 279 263 250 251 252 253 252 253 255 254 263 249
202 229 258 250 172 133 175 249 225 194 206 189 203 226 248 284 302 298 301 302 303 300 293 290 297 303 281 283 278 283 294 300 295 283 268 256 255 251 243 250 253 249 258 265
181 216 251 191 148 184 217 210 184 200 203 205 224 243 256 274 280 289 307 313 308 299 293 301 296 271 283 284 288 299 302 306 306 304 298 291 264 263 247 229 243 249 253 269
198 218 249 175 194 216 188 204 218 216 230 206 224 242 255 266 267 275 282 291 301 294 298 309 304 264 268 288 299 301 305 304 307 310 308 305 284 275 267 241 238 253 246 261
247 259 251 232 244 250 228 230 237 228 227 212 224 238 249 256 265 272 282 287 295 296 288 294 299 295 279 288 293 292 296 301 306 312 318 320 307 289 276 254 248 250 252 257
252 273 295 259 233 238 247 241 243 254 239 225 222 241 243 250 257 263 275 283 276 270 271 278 289 291 296 299 289 295 296 299 304 306 302 313 314 299 287 262 253 256 247 244
235 231 221 252 238 224 226 239 236 238 255 252 231 239 245 249 253 259 268 276 277 275 276 279 283 289 297 298 279 259 290 298 297 302 304 308 311 320 319 308 300 294 287 282
239 248 238 264 277 236 235 249 248 240 240 253 251 237 238 251 257 261 266 271 270 272 276 281 286 292 297 294 277 249 255 275 282 291 295 299 301 305 314 324 320 312 306 295
252 258 273 267 267 273 259 259 262 262 257 247 250 248 243 254 261 261 262 267 271 276 282 284 287 291 293 283 275 268 262 276 285 269 279 287 292 295 296 303 315 319 320 313
259 253 247 264 277 283 285 280 274 276 275 275 258 249 248 251 257 263 272 283 288 286 286 287 290 294 299 283 273 271 270 267 267 265 274 285 293 298 300 300 302 306 312 319
295 294 250 246 256 272 279 265 254 262 264 266 266 261 256 251 260 275 283 276 267 276 281 280 281 287 293 278 275 275 271 289 301 292 285 290 294 295 295 297 300 301 302 306
227 265 266 266 266 272 267 258 250 255 258 258 261 260 246 235 280 292 294 289 269 268 270 270 277 284 281 267 255 264 270 285 302 304 288 284 286 284 287 290 295 298 297 298
235 241 239 240 249 260 270 272 264 259 256 258 250 215 199 210 238 263 284 308 321 312 295 286 284 284 277 269 250 252 261 270 277 279 286 286 288 292 294 293 296 297 302 305
282 265 271 266 255 248 258 270 270 264 259 226 194 205 222 232 235 252 267 283 297 301 303 301 315 332 310 294 296 250 260 272 281 281 279 290 303 298 292 289 291 296 301 304
336 336 343 338 337 307 283 286 280 277 252 173 162 162 210 258 234 249 268 272 268 265 277 292 303 298 289 289 304 267 254 259 266 277 279 277 284 288 290 290 292 294 294 296
347 1 7 358 349 347 325 295 209 241 278 150 159 180 216 267 257 234 248 292 298 287 288 308 329 298 281 285 308 320 282 279 276 270 276 283 287 286 285 288 291 292 293 294
328 2 357 2 12 354 352 13 118 130 105 103 135 158 173 246 288 297 270 256 278 304 325 317 300 294 313 330 66 30 319 301 290 278 274 276 278 282 286 288 289 291 291 290
245 246 308 325 356 350 7 27 68 108 125 151 194 210 220 241 255 267 298 301 291 307 334 300 305 319 337 34 84 55 326 301 289 278 273 273 276 277 279 282 284 286 289 291
193 197 296 37 79 75 32 3 21 41 72 352 255 238 228 249 307 296 281 308 324 326 350 321 328 342 15 58 53 351 300 288 281 278 277 278 279 278 278 281 284 286 285 286
183 173 149 116 120 230 262 26 42 35 44 36 12 351 319 251 263 306 324 323 325 340 350 334 337 352 21 18 336 302 292 288 284 281 272 279 280 282 282 282 282 285 284 282
188 207 229 235 236 233 220 183 5 335 355 4 354 344 341 345 330 320 331 332 324 337 346 340 341 346 349 333 316 303 295 299 312 307 283 278 280 281 283 286 287 283 281 280
138 152 148 331 297 230 197 194 215 273 277 266 293 316 332 340 342 341 337 336 336 345 343 340 340 334 324 318 312 303 297 292 288 287 286 283 281 281 280 280 281 281 280 278
Height
1504 1502 1503 1502 1502 1504 1504 1501 1501 1492 1491 1484 1483 1483 1482 1481 1480 1480 1479 1478 1477 1476 1475 1475 1475 1475 1474 1474 1474 1474 1473 1473 1472 1472 1472 1472 1471 1471 1471 1472 1472 1472 1472 1472
1504 1502 1501 1499 1496 1497 1497 1496 1495 1492 1487 1480 1480 1480 1479 1479 1478 1477 1476 1475 1474 1473 1472 1472 1471 1471 1471 1470 1470 1470 1469 1468 1468 1468 1467 1467 1467 1467 1467 1467 1467 1467 1467 1467
1504 1505 1500 1497 1490 1491 1492 1490 1489 1487 1481 1478 1479 1477 1476 1475 1475 1474 1473 1473 1472 1471 1470 1469 1468 1468 1467 1466 1466 1465 1465 1464 1463 1463 1462 1462 1462 1462 1461 1461 1461 1462 1462 1462
1508 1505 1500 1483 1481 1482 1484 1483 1482 1479 1476 1475 1475 1474 1473 1472 1472 1471 1470 1470 1469 1468 1467 1466 1465 1465 1464 1463 1462 1461 1460 1459 1458 1458 1457 1457 1457 1456 1456 1456 1456 1456 1457 1457
1507 1505 1495 1483 1479 1481 1482 1479 1475 1475 1473 1473 1473 1472 1470 1469 1469 1468 1468 1467 1467 1466 1464 1463 1462 1461 1460 1459 1458 1457 1456 1455 1454 1453 1452 1452 1451 1451 1451 1451 1451 1451 1451 1452
1505 1501 1492 1476 1475 1475 1479 1478 1469 1470 1470 1471 1472 1474 1469 1467 1467 1466 1466 1465 1464 1463 1461 1460 1459 1458 1457 1456 1454 1453 1452 1451 1450 1449 1448 1447 1446 1446 1446 1446 1446 1446 1446 1447
1500 1497 1484 1474 1474 1476 1480 1471 1466 1465 1466 1468 1468 1467 1466 1465 1464 1464 1463 1462 1461 1460 1458 1457 1456 1455 1454 1452 1451 1450 1448 1447 1446 1445 1444 1443 1442 1442 1442 1442 1441 1442 1442 1442
1496 1495 1481 1470 1472 1472 1467 1463 1463 1463 1463 1464 1463 1463 1462 1462 1461 1461 1460 1459 1458 1457 1456 1455 1453 1452 1450 1449 1448 1446 1445 1443 1442 1441 1440 1439 1438 1438 1438 1437 1437 1437 1438 1438
1477 1471 1465 1464 1462 1462 1462 1462 1461 1461 1461 1461 1460 1460 1459 1459 1459 1458 1457 1456 1455 1454 1453 1451 1450 1448 1447 1445 1444 1442 1441 1439 1438 1437 1436 1435 1435 1434 1433 1433 1433 1433 1433 1433
1472 1464 1462 1461 1460 1460 1460 1459 1459 1459 1459 1458 1457 1456 1456 1456 1455 1455 1454 1453 1452 1451 1449 1448 1447 1445 1443 1442 1440 1439 1437 1436 1434 1433 1432 1432 1431 1431 1430 1430 1430 1430 1430 1430
1467 1462 1460 1457 1457 1457 1457 1457 1456 1456 1456 1455 1454 1453 1453 1452 1451 1451 1450 1450 1448 1447 1445 1444 1443 1441 1440 1438 1437 1435 1434 1433 1431 1431 1429 1428 1428 1428 1428 1428 1428 1427 1427 1427
1459 1456 1457 1454 1453 1454 1454 1453 1453 1452 1451 1451 1450 1449 1449 1448 1447 1447 1446 1445 1444 1443 1442 1440 1439 1437 1436 1435 1433 1432 1431 1430 1429 1428 1427 1426 1425 1425 1425 1425 1425 1424 1424 1425
1453 1453 1452 1451 1451 1451 1450 1450 1449 1448 1448 1447 1446 1446 1445 1444 1443 1443 1442 1441 1440 1439 1437 1436 1435 1433 1432 1431 1430 1429 1428 1427 1426 1425 1425 1424 1423 1422 1421 1421 1421 1421 1421 1421
1451 1451 1449 1448 1448 1447 1446 1445 1445 1444 1444 1443 1442 1442 1441 1440 1439 1439 1438 1437 1436 1435 1434 1432 1431 1430 1429 1428 1427 1426 1425 1425 1424 1423 1422 1422 1421 1420 1419 1418 1417 1417 1418 1417
1447 1447 1446 1445 1444 1443 1443 1442 1441 1440 1439 1439 1438 1438 1437 1436 1435 1434 1434 1433 1432 1431 1430 1429 1427 1427 1426 1425 1424 1423 1422 1422 1421 1420 1420 1419 1418 1418 1417 1416 1415 1414 1414 1414
1443 1443 1442 1441 1440 1439 1439 1438 1437 1436 1435 1435 1434 1434 1433 1432 1432 1431 1430 1429 1428 1427 1426 1425 1424 1424 1423 1422 1421 1420 1420 1419 1419 1418 1417 1417 1416 1415 1414 1414 1413 1412 1411 1411
1440 1439 1438 1437 1436 1436 1435 1434 1433 1433 1432 1431 1431 1430 1429 1429 1428 1427 1426 1426 1425 1424 1423 1422 1421 1421 1420 1419 1419 1418 1417 1416 1416 1415 1415 1414 1413 1413 1412 1411 1410 1410 1409 1409
1438 1437 1436 1435 1434 1433 1432 1431 1430 1430 1429 1428 1427 1427 1426 1425 1424 1423 1423 1422 1421 1421 1420 1419 1419 1418 1417 1417 1416 1415 1414 1414 1413 1412 1412 1412 1411 1410 1410 1409 1408 1407 1406 1406
1435 1434 1433 1432 1431 1430 1429 1428 1427 1427 1426 1425 1424 1423 1423 1422 1421 1421 1420 1419 1418 1417 1417 1417 1416 1416 1415 1414 1414 1413 1412 1411 1410 1410 1409 1409 1409 1408 1407 1406 1405 1404 1403 1402
1433 1432 1431 1430 1429 1428 1427 1425 1424 1423 1423 1422 1421 1420 1420 1419 1419 1418 1418 1417 1416 1416 1415 1415 1414 1413 1413 1412 1411 1410 1409 1409 1408 1407 1407 1406 1405 1405 1404 1403 1402 1401 1400 1399
1431 1430 1429 1428 1427 1426 1425 1423 1422 1421 1420 1419 1419 1418 1417 1417 1417 1416 1415 1415 1415 1414 1414 1413 1412 1411 1410 1410 1409 1408 1407 1406 1406 1405 1404 1403 1403 1402 1401 1400 1399 1398 1397 1396
1429 1428 1427 1426 1425 1424 1423 1422 1421 1420 1419 1418 1417 1417 1416 1415 1415 1415 1414 1414 1413 1413 1412 1411 1410 1410 1409 1408 1407 1406 1405 1404 1403 1402 1402 1401 1400 1399 1398 1397 1396 1395 1394 1393
1428 1427 1426 1425 1424 1423 1422 1421 1420 1419 1418 1417 1416 1416 1415 1414 1414 1413 1413 1413 1412 1411 1410 1409 1409 1408 1407 1406 1405 1404 1403 1402 1401 1400 1399 1398 1398 1397 1396 1394 1393 1392 1391 1390
1426 1426 1425 1424 1423 1422 1421 1420 1419 1418 1417 1416 1416 1415 1414 1413 1413 1412 1412 1411 1410 1410 1409 1408 1407 1406 1405 1404 1403 1402 1401 1400 1399 1398 1397 1396 1395 1394 1393 1392 1390 1389 1388 1387
1425 1424 1424 1423 1422 1421 1420 1419 1418 1417 1416 1415 1415 1414 1413 1413 1412 1411 1411 1410 1409 1408 1407 1406 1405 1404 1403 1402 1401 1400 1398 1397 1396 1395 1394 1393 1392 1391 1390 1389 1388 1387 1385 1384
1423 1422 1422 1421 1421 1420 1419 1418 1417 1416 1415 1414 1414 1413 1412 1412 1411 1410 1409 1408 1407 1406 1405 1404 1403 1402 1401 1400 1399 1397 1396 1395 1394 1393 1392 1391 1390 1388 1387 1386 1385 1384 1382 1381
1421 1421 1420 1420 1419 1419 1418 1417 1416 1415 1415 1414 1413 1412 1412 1411 1410 1409 1408 1407 1406 1405 1404 1402 1401 1400 1399 1398 1396 1395 1394 1393 1392 1390 1389 1388 1387 1386 1385 1383 1382 1381 1379 1378